Location: LDNL
(36.4545°S, 141.6685°E)
Time: 17:43:08
(UTC+10:00)

XW-2C - Visible Passes

Search period start: 16 May 2022 00:00
Search period end: 26 May 2022 00:00
Orbit: 499 x 520 km, 97.5° (Epoch: 16 May)

Date Brightness Start Highest point End Pass type
(mag) Time Alt. Az. Time Alt. Az. Time Alt. Az.
16 May ? 05:27:00 10° NE 05:30:33 41° ESE 05:34:11 10° S visible
16 May ? 18:33:39 10° SSE 18:37:32 85° ENE 18:41:20 10° N visible
17 May ? 05:10:52 10° NE 05:14:00 25° ESE 05:17:12 10° SSE visible
17 May ? 06:45:17 10° NW 06:47:54 18° W 06:50:34 10° SW visible
17 May ? 18:17:07 10° SSE 18:20:53 49° E 18:24:33 10° N visible
17 May ? 19:53:47 10° WSW 19:54:18 10° WSW 19:54:49 10° WSW visible
18 May ? 04:55:05 10° ENE 04:57:30 16° ESE 04:59:55 10° SSE visible
18 May ? 06:27:51 10° NNW 06:31:09 29° W 06:34:31 10° SW visible
18 May ? 18:00:46 10° SE 18:04:11 29° E 18:07:31 10° NNE visible
18 May ? 19:35:24 10° SSW 19:37:49 16° WSW 19:40:13 10° WNW visible
19 May ? 04:40:23 10° ESE 04:41:01 10° ESE 04:41:39 10° SE visible
19 May ? 06:10:48 10° N 06:14:27 48° W 06:18:07 10° SSW visible
19 May ? 19:18:06 10° SSW 19:21:18 25° WSW 19:24:26 10° NW visible
20 May ? 05:53:59 10° N 05:57:45 83° WNW 06:01:08 13° SSW visible
20 May ? 19:01:05 10° S 19:04:43 40° WSW 19:08:16 10° NW visible
21 May ? 05:37:23 10° NNE 05:41:07 57° ESE 05:44:08 15° S visible
21 May ? 18:44:15 10° S 18:48:05 69° WSW 18:51:50 10° NNW visible
22 May ? 05:21:02 10° NE 05:24:29 34° ESE 05:27:09 15° SSE visible
22 May ? 06:56:36 10° WNW 06:58:30 13° W 07:00:25 10° WSW visible
22 May ? 18:27:33 10° SSE 18:31:23 69° E 18:35:09 10° N visible
23 May ? 05:04:57 10° ENE 05:07:53 22° ESE 05:10:08 14° SSE visible
23 May ? 06:38:44 10° NNW 06:41:41 21° W 06:44:41 10° SW visible
23 May ? 18:11:01 10° SSE 18:14:39 40° E 18:18:13 10° N visible
23 May ? 19:46:36 10° SW 19:48:10 12° WSW 19:49:43 10° W visible
24 May ? 04:49:19 10° E 04:51:19 14° ESE 04:53:08 11° SE visible
24 May ? 06:21:24 10° NNW 06:24:53 35° W 06:28:00 13° SSW visible
24 May ? 17:54:41 10° SE 17:57:52 24° E 18:00:58 10° NNE visible
24 May ? 19:28:51 10° SSW 19:31:36 19° WSW 19:34:19 10° WNW visible
25 May ? 06:04:23 10° N 06:08:07 60° W 06:10:59 17° SSW visible
25 May ? 19:11:37 10° S 19:14:59 30° WSW 19:18:18 10° NW visible
